Regional Weather Roundup
Issued by NWS Charleston, SC

Current Version | Previous Version | Graphics & Text | Print | Product List | Glossary Off
Versions: 1 2 3 4 5 6 7 8 9 10 11 12 13 14 15 16 17 18 19 20 21 22 23 24 25 26 27 28 29 30 31 32 33 34 35 36 37 38 39 40 41 42 43 44 45 46 47 48 49 50

000
ASUS42 KCHS 230026
RWRCHS

REGIONAL WEATHER ROUNDUP
NATIONAL WEATHER SERVICE CHARLESTON SC
700 PM EST WED FEB 22 2017

NOTE: "FAIR" INDICATES FEW OR NO CLOUDS BELOW 12,000 FEET WITH NO
SIGNIFICANT WEATHER AND/OR OBSTRUCTIONS TO VISIBILITY.

NOT ALL STATIONS ARE QUALITY CONTROLLED. USE DATA WITH CAUTION...
ESPECIALLY DEWPOINT OBSERVATIONS.

SCZ027-030-031-034>040-042>050-230100-
...SOUTHEAST SOUTH CAROLINA...

CITY           SKY/WX    TMP DP  RH WIND       PRES   REMARKS
N CHARLESTON   CLOUDY    66  59  78 E9        29.89R
6HR MIN TEMP:  66; 6HR MAX TEMP:  75;

WATERFRONT PRK   N/A     64  61  90 E7        29.87R
MOUNT PLEASANT FAIR      64  61  88 CALM      29.90R
JOHNS ISLAND   FAIR      64  61  88 E6        29.89R
PINOPOLIS        N/A     66  59  77 CALM      29.80S
MONCKS CORNER  FAIR      64  55  72 CALM      29.90R
SUMMERVILLE    FAIR      66  59  77 E3        29.90R
BEAUFORT MCAS  CLOUDY    67  62  84 E9        29.86S
6HR MIN TEMP:  65; 6HR MAX TEMP:  74; 6HR PCP:  0.01;

BEAUFORT ARPT  MOCLDY    64  61  88 E9        29.86S
HILTON HEAD IS PTCLDY    64  61  88 NE9       29.86S
WALTERBORO     CLOUDY    64  59  82 E5        29.90R
ALLENDALE      CLOUDY    68  57  68 CALM      29.87R

...SOUTHERN MIDLANDS AND PEE DEE...

CITY           SKY/WX    TMP DP  RH WIND       PRES   REMARKS
GEORGETOWN     FAIR      61  55  82 NE3       29.92R
KINGSTREE      FAIR      63  54  72 E3        29.91S
ORANGEBURG     CLOUDY    67  55  65 E6        29.89R
6HR MIN TEMP:  67; 6HR MAX TEMP:  74;

BARNWELL       FAIR      68  57  68 CALM      29.88R
AIKEN          MOCLDY    63  55  77 NE3       29.92S
MANNING        FAIR      63  48  59 MISG      29.90S
COLUMBIA       CLOUDY    70  52  52 SE6       29.89R
6HR MIN TEMP:  69; 6HR MAX TEMP:  75;

SUMTER         CLOUDY    67  54  61 SE7       29.88R
6HR MIN TEMP:  67; 6HR MAX TEMP:  76; 6HR PCP: TRACE;

FLORENCE       CLOUDY    66  55  67 SE7       29.92R
6HR MIN TEMP:  66; 6HR MAX TEMP:  77;

MYRTLE BEACH   PTCLDY    63  55  77 E9        29.94R
N MYRTLE BEACH CLOUDY    64  55  72 E5        29.92S
6HR MIN TEMP:  64; 6HR MAX TEMP:  71;


$$

GAZ063-065-086>088-099>101-113>116-118-119-134>141-150-230100-
...SOUTHEAST GEORGIA...

CITY           SKY/WX    TMP DP  RH WIND       PRES   REMARKS
SAVANNAH ARPT  CLOUDY    67  59  75 E8        29.84S
6HR MIN TEMP:  63; 6HR MAX TEMP:  68; 6HR PCP:  1.57;

HUNTER AAF     PTCLDY    65  65  97 E6        29.82R
6HR MIN TEMP:  64; 6HR MAX TEMP:  66; 6HR PCP:  0.45;

FORT STEWART   HVY RAIN  63  61  94 E5        29.82R FOG
                                      6HR PCP:  0.70;

STATESBORO     CLOUDY    65  65 100 CALM      29.85S
SYLVANIA         N/A    N/A N/A N/A E5        29.87R
CLAXTON        RAIN     N/A N/A N/A CALM      29.85R

...CSRA...CENTRAL AND FAR SOUTHEAST GEORGIA...

CITY           SKY/WX    TMP DP  RH WIND       PRES   REMARKS
THOMSON        CLOUDY    65  64  96 CALM      29.93R
AUGUSTA-BUSH   CLOUDY    69  59  70 CALM      29.87R
6HR MIN TEMP:  68; 6HR MAX TEMP:  75;

AUGUSTA-DANIEL CLOUDY    70  55  59 E3        29.88R
SWAINSBORO     LGT RAIN  63  63 100 E8        29.87S
VIDALIA        CLOUDY    64  64 100 E9        29.84S
EASTMAN        CLOUDY    66  65  99 E7        29.86S
HAZLEHURST     RAIN      65  65 100 NE7       29.82R
ALMA           LGT RAIN  64  64 100 CALM      29.80S
6HR MIN TEMP:  64; 6HR MAX TEMP:  69; 6HR PCP:  0.22;

WAYCROSS       CLOUDY    66  66 100 CALM      29.80R
JESUP          CLOUDY    64  63  94 E9        29.82R
BAXLEY         LGT RAIN  64  64 100 NE9       29.81S
BRUNSWICK      CLOUDY    64  64 100 CALM      29.81S
SAINT SIMONS   CLOUDY    65  62  90 CALM      29.79S
6HR MIN TEMP:  65; 6HR MAX TEMP:  70; 6HR PCP:  0.02;


$$

SCZ027-028-034-036>038-045-046-048>050-GAZ119-141-230100-
...LAKE AND SUPPLEMENTAL COASTAL OBSERVATIONS...

STATION/POSITION TIME  TEMP    WIND        PRES    WAVE   SWELL
                       AIR SEA DIR/SP/G            HT/PER HT/PER/DIR
                 (UTC) (F)     (DEG/KT/KT) (MB)    (FT/S) (FT/S/D)
WINYAH BAY       2330   64      70/  6     1012.0S
LAKE MURRAY      2350   68        CALM     1011.9R
ACE BASIN NERRS  2330   67      90/  4     1011.0S
FORT PULASKI     0000   64 61   80/ 11/ 13 1010.6
SAPELO ISLAND    0000   65      70/  6     1009.0

$$

ANZ835-935-AMZ111-154-330-350-352-354-370-450-454-472-230100-
...C-MAN AND BUOY OBSERVATIONS...

STATION/POSITION TIME  TEMP    WIND        PRES    WAVE   SWELL
                       AIR SEA DIR/SP/G            HT/PER HT/PER/DIR
                 (UTC) (F)     (DEG/KT/KT) (MB)    (FT/S) (FT/S/D)
BUOY 41004       2350   69 70  110/ 17/ 21 1010.9R   6/ 7   2/ 80/10
BUOY 41008       2350   66 63  100/ 12/ 16 1008.7R   6/ 8   5/120/ 8
FOLLY BEACH CMAN 0000   62      90/  6/  6 1012.6R
CAPERS NEARSHORE 2308   62 59  100/  6/ 10 1011.6F
FRIPP NEARSHORE  0008   63 60   60/ 12/ 16 1010.8R


STATION/POSITION TIME  TEMP    WIND        PRES    WAVE   SWELL
                       AIR SEA DIR/SP/G            HT/PER HT/PER/DIR
                 (UTC) (F)     (DEG/KT/KT) (MB)    (FT/S) (FT/S/D)
5E ST. MARYS GA  0000      63                N/A     6/ 8
FRYING PAN BUOY  0010   69 69  120/ 12/ 14 1013.3
BUOY 41025       2350   68 75  150/  8/ 12 1015.1R   3/ 9   3/ 70/ 9
CAPE LOOKOUT NC  0000   65     150/  6/  6 1014.3R
BUOY 41002       2350   66 70  110/ 16/ 17 1014.5F   5/11   5/ 50/11
BUOY 41010       NOT AVBL
ST AUGUSTINE FL  0000   64 68  100/ 16/ 17 1008.7R


$$




USA.gov is the U.S. government's official web portal to all federal, state and local government web resources and services.